TimeMST,TemperatureF,Dew PointF,Humidity,Sea Level PressureIn,VisibilityMPH,Wind Direction,Wind SpeedMPH,Gust SpeedMPH,PrecipitationIn,Events,Conditions,WindDirDegrees,DateUTC
12:16 AM,23.0,15.8,74,30.03,-9999.0,Calm,Calm,-,N/A,,Scattered Clouds,0,2013-03-08 07:16:00
12:32 AM,21.2,14.0,74,30.04,-9999.0,Calm,Calm,-,N/A,,Scattered Clouds,0,2013-03-08 07:32:00
12:56 AM,21.2,15.8,80,30.03,-9999.0,Calm,Calm,-,N/A,,Scattered Clouds,0,2013-03-08 07:56:00
1:16 AM,21.2,14.0,74,30.03,-9999.0,Calm,Calm,-,N/A,,Mostly Cloudy,0,2013-03-08 08:16:00
1:36 AM,21.2,15.8,80,30.02,-9999.0,ENE,3.5,-,N/A,,Scattered Clouds,60,2013-03-08 08:36:00
1:56 AM,19.4,14.0,80,30.02,-9999.0,Calm,Calm,-,N/A,,Clear,0,2013-03-08 08:56:00
2:16 AM,19.4,14.0,80,30.01,-9999.0,Calm,Calm,-,N/A,,Scattered Clouds,0,2013-03-08 09:16:00
2:36 AM,19.4,14.0,80,30.01,-9999.0,Calm,Calm,-,N/A,,Clear,0,2013-03-08 09:36:00
2:54 AM,19.4,14.0,80,30.00,-9999.0,Calm,Calm,-,N/A,,Clear,0,2013-03-08 09:54:00
3:16 AM,17.6,12.2,79,30.00,-9999.0,Calm,Calm,-,N/A,,Clear,0,2013-03-08 10:16:00
3:36 AM,17.6,12.2,79,30.00,-9999.0,Calm,Calm,-,N/A,,Clear,0,2013-03-08 10:36:00
3:53 AM,17.6,12.2,79,30.00,-9999.0,Calm,Calm,-,N/A,,Clear,0,2013-03-08 10:53:00
4:13 AM,14.0,10.4,86,30.01,-9999.0,Calm,Calm,-,N/A,,Unknown,0,2013-03-08 11:13:00
4:35 AM,17.6,12.2,79,30.01,-9999.0,Calm,Calm,-,N/A,,Unknown,0,2013-03-08 11:35:00
4:56 AM,17.6,12.2,79,30.01,-9999.0,Calm,Calm,-,N/A,,Unknown,0,2013-03-08 11:56:00
5:16 AM,15.8,10.4,79,30.01,-9999.0,Calm,Calm,-,N/A,,Mostly Cloudy,0,2013-03-08 12:16:00
5:36 AM,15.8,10.4,79,30.02,-9999.0,Calm,Calm,-,N/A,,Scattered Clouds,0,2013-03-08 12:36:00
5:51 AM,17.6,12.2,79,30.02,-9999.0,Calm,Calm,-,N/A,,Mostly Cloudy,0,2013-03-08 12:51:00
6:16 AM,14.0,10.4,86,30.02,-9999.0,Calm,Calm,-,N/A,,Unknown,0,2013-03-08 13:16:00
6:35 AM,14.0,10.4,86,30.02,-9999.0,Calm,Calm,-,N/A,,Mostly Cloudy,0,2013-03-08 13:35:00
6:55 AM,15.8,12.2,86,30.01,-9999.0,Calm,Calm,-,N/A,,Unknown,0,2013-03-08 13:55:00
7:16 AM,15.8,12.2,86,30.01,-9999.0,SE,4.6,-,N/A,,Unknown,130,2013-03-08 14:16:00
7:36 AM,14.0,10.4,86,30.01,-9999.0,Calm,Calm,-,N/A,,Clear,0,2013-03-08 14:36:00
7:56 AM,17.6,10.4,73,30.01,-9999.0,West,3.5,-,N/A,,Clear,260,2013-03-08 14:56:00
8:16 AM,17.6,12.2,79,30.01,-9999.0,Calm,Calm,-,N/A,,Clear,0,2013-03-08 15:16:00
8:36 AM,19.4,12.2,74,30.01,-9999.0,Calm,Calm,-,N/A,,Clear,0,2013-03-08 15:36:00
8:55 AM,17.6,12.2,79,30.00,-9999.0,Calm,Calm,-,N/A,,Clear,0,2013-03-08 15:55:00
9:15 AM,21.2,12.2,68,29.98,-9999.0,East,3.5,-,N/A,,Clear,90,2013-03-08 16:15:00
9:31 AM,23.0,14.0,68,29.98,-9999.0,Calm,Calm,-,N/A,,Clear,0,2013-03-08 16:31:00
9:56 AM,24.8,14.0,64,29.96,-9999.0,Calm,Calm,-,N/A,,Clear,0,2013-03-08 16:56:00
10:11 AM,24.8,14.0,64,29.96,-9999.0,Calm,Calm,-,N/A,,Clear,0,2013-03-08 17:11:00
10:35 AM,30.2,14.0,51,29.94,-9999.0,ESE,3.5,-,N/A,,Clear,110,2013-03-08 17:35:00
10:54 AM,30.2,14.0,51,29.93,-9999.0,Calm,Calm,-,N/A,,Clear,0,2013-03-08 17:54:00
11:12 AM,32.0,14.0,48,29.92,-9999.0,Calm,Calm,-,N/A,,Clear,0,2013-03-08 18:12:00
11:36 AM,32.0,14.0,48,29.89,-9999.0,Calm,Calm,-,N/A,,Clear,0,2013-03-08 18:36:00
11:56 AM,32.0,14.0,48,29.88,-9999.0,Calm,Calm,-,N/A,,Clear,0,2013-03-08 18:56:00
12:16 PM,33.8,15.8,48,29.87,-9999.0,Calm,Calm,-,N/A,,Clear,0,2013-03-08 19:16:00
12:36 PM,33.8,15.8,48,29.85,-9999.0,Calm,Calm,-,N/A,,Clear,0,2013-03-08 19:36:00
12:52 PM,33.8,15.8,48,29.83,-9999.0,Calm,Calm,-,N/A,,Clear,0,2013-03-08 19:52:00
1:16 PM,35.6,14.0,41,29.81,-9999.0,Calm,Calm,-,N/A,,Clear,0,2013-03-08 20:16:00
1:32 PM,35.6,15.8,44,29.80,-9999.0,Calm,Calm,-,N/A,,Clear,0,2013-03-08 20:32:00
1:56 PM,35.6,15.8,44,29.79,-9999.0,Calm,Calm,-,N/A,,Clear,0,2013-03-08 20:56:00
2:12 PM,37.4,15.8,41,29.78,-9999.0,East,3.5,-,N/A,,Clear,80,2013-03-08 21:12:00
2:36 PM,37.4,17.6,45,29.78,-9999.0,East,5.8,-,N/A,,Clear,100,2013-03-08 21:36:00
2:51 PM,37.4,17.6,45,29.78,-9999.0,East,4.6,-,N/A,,Clear,100,2013-03-08 21:51:00
3:13 PM,35.6,15.8,44,29.77,-9999.0,Calm,Calm,-,N/A,,Scattered Clouds,0,2013-03-08 22:13:00
3:31 PM,35.6,17.6,48,29.77,-9999.0,Calm,Calm,-,N/A,,Scattered Clouds,0,2013-03-08 22:31:00
3:51 PM,35.6,17.6,48,29.76,-9999.0,Calm,Calm,-,N/A,,Scattered Clouds,0,2013-03-08 22:51:00
4:15 PM,35.6,17.6,48,29.76,-9999.0,Calm,Calm,-,N/A,,Mostly Cloudy,0,2013-03-08 23:15:00
4:36 PM,35.6,19.4,52,29.75,-9999.0,NNE,3.5,-,N/A,,Mostly Cloudy,30,2013-03-08 23:36:00
4:56 PM,35.6,21.2,56,29.74,-9999.0,ENE,3.5,-,N/A,,Scattered Clouds,60,2013-03-08 23:56:00
5:16 PM,35.6,23.0,60,29.74,-9999.0,SW,3.5,-,N/A,,Scattered Clouds,220,2013-03-09 00:16:00
5:31 PM,33.8,23.0,65,29.74,-9999.0,ESE,4.6,-,N/A,,Scattered Clouds,120,2013-03-09 00:31:00
5:54 PM,35.6,23.0,60,29.74,-9999.0,Calm,Calm,-,N/A,,Clear,0,2013-03-09 00:54:00
6:14 PM,33.8,24.8,70,29.74,-9999.0,Calm,Calm,-,N/A,,Mostly Cloudy,0,2013-03-09 01:14:00
6:36 PM,33.8,24.8,70,29.74,-9999.0,SW,4.6,-,N/A,,Overcast,230,2013-03-09 01:36:00
6:56 PM,33.8,23.0,65,29.74,-9999.0,Calm,Calm,-,N/A,,Overcast,0,2013-03-09 01:56:00
7:12 PM,35.6,26.6,70,29.74,-9999.0,Calm,Calm,-,N/A,,Overcast,0,2013-03-09 02:12:00
7:36 PM,33.8,26.6,75,29.74,-9999.0,Calm,Calm,-,N/A,,Overcast,0,2013-03-09 02:36:00
7:50 PM,33.8,26.6,75,29.74,-9999.0,Calm,Calm,-,N/A,,Overcast,0,2013-03-09 02:50:00
8:10 PM,33.8,26.6,75,29.74,-9999.0,West,3.5,-,N/A,,Overcast,260,2013-03-09 03:10:00
8:36 PM,33.8,30.2,87,29.74,-9999.0,WNW,6.9,-,N/A,Snow,Light Snow,300,2013-03-09 03:36:00
8:56 PM,33.8,32.0,93,29.74,-9999.0,North,4.6,-,N/A,,Unknown,350,2013-03-09 03:56:00
9:16 PM,33.8,32.0,93,29.74,-9999.0,Calm,Calm,-,N/A,,Unknown,0,2013-03-09 04:16:00
9:36 PM,33.8,30.2,87,29.73,-9999.0,Calm,Calm,-,N/A,,Unknown,0,2013-03-09 04:36:00
9:56 PM,33.8,30.2,87,29.72,-9999.0,SW,3.5,-,N/A,,Overcast,230,2013-03-09 04:56:00
10:13 PM,32.0,28.4,87,29.71,-9999.0,SE,4.6,-,N/A,,Unknown,140,2013-03-09 05:13:00
10:36 PM,32.0,28.4,87,29.71,-9999.0,ESE,6.9,-,N/A,,Unknown,110,2013-03-09 05:36:00
10:52 PM,32.0,30.2,93,29.71,-9999.0,SSE,5.8,-,N/A,,Mostly Cloudy,150,2013-03-09 05:52:00
11:12 PM,32.0,28.4,87,29.70,-9999.0,ESE,4.6,-,N/A,,Overcast,110,2013-03-09 06:12:00
11:36 PM,32.0,28.4,87,29.69,-9999.0,Calm,Calm,-,N/A,,Unknown,0,2013-03-09 06:36:00
11:51 PM,32.0,28.4,87,29.69,-9999.0,ESE,5.8,-,N/A,,Unknown,110,2013-03-09 06:51:00